Total_Precipitation_Accumulation
0.05 0.06 0.08 0.07 0.07 0.08 0.09 0.11 0.15 0.11 0.04 0.02 0.03 0.07 0.12 0.14 0.16 0.14 0.12 0.12 0.13 0.13 0.15 0.14 0.12 0.15 0.21 0.37 0.81 1.59 2.04 1.67 0.98 0.59 0.39 0.25 0.14 0.06
0.06 0.08 0.08 0.08 0.09 0.09 0.10 0.10 0.13 0.15 0.10 0.03 0.03 0.07 0.17 0.19 0.17 0.15 0.14 0.14 0.12 0.10 0.10 0.11 0.13 0.15 0.20 0.26 0.40 0.79 1.49 1.90 1.65 1.10 0.62 0.40 0.24 0.11
0.08 0.11 0.12 0.14 0.17 0.15 0.16 0.16 0.15 0.16 0.15 0.06 0.03 0.05 0.15 0.21 0.20 0.15 0.15 0.15 0.13 0.11 0.10 0.09 0.11 0.15 0.22 0.29 0.32 0.41 0.72 1.25 1.60 1.49 1.12 0.72 0.40 0.20
0.13 0.17 0.19 0.18 0.18 0.16 0.18 0.18 0.17 0.16 0.16 0.09 0.04 0.05 0.10 0.18 0.26 0.26 0.21 0.19 0.16 0.15 0.14 0.12 0.14 0.14 0.18 0.26 0.35 0.39 0.47 0.70 1.12 1.36 1.33 1.13 0.78 0.47
0.19 0.21 0.21 0.20 0.18 0.16 0.21 0.20 0.16 0.15 0.16 0.14 0.06 0.05 0.09 0.12 0.23 0.33 0.29 0.24 0.22 0.19 0.17 0.15 0.16 0.18 0.16 0.17 0.24 0.33 0.37 0.40 0.58 1.02 1.29 1.21 1.10 0.87
0.13 0.12 0.19 0.29 0.25 0.22 0.23 0.17 0.14 0.14 0.15 0.15 0.10 0.07 0.08 0.11 0.19 0.30 0.36 0.34 0.28 0.24 0.22 0.18 0.17 0.21 0.18 0.12 0.10 0.16 0.28 0.40 0.48 0.67 1.00 1.12 1.04 0.99
0.04 0.06 0.16 0.28 0.26 0.30 0.33 0.23 0.16 0.15 0.15 0.16 0.15 0.13 0.12 0.15 0.18 0.24 0.36 0.43 0.37 0.32 0.26 0.19 0.16 0.14 0.15 0.14 0.13 0.13 0.17 0.25 0.35 0.47 0.65 0.86 0.92 0.91
0.05 0.05 0.09 0.20 0.19 0.18 0.25 0.26 0.26 0.25 0.20 0.18 0.21 0.22 0.22 0.22 0.21 0.27 0.33 0.41 0.44 0.41 0.35 0.24 0.19 0.16 0.12 0.11 0.14 0.13 0.14 0.19 0.26 0.35 0.46 0.59 0.74 0.81
0.06 0.05 0.07 0.15 0.17 0.13 0.14 0.16 0.17 0.23 0.28 0.25 0.29 0.30 0.27 0.25 0.24 0.28 0.31 0.34 0.42 0.54 0.52 0.40 0.27 0.18 0.13 0.16 0.21 0.17 0.15 0.16 0.21 0.29 0.36 0.44 0.53 0.61
0.04 0.05 0.05 0.08 0.16 0.11 0.09 0.13 0.17 0.25 0.35 0.36 0.43 0.44 0.34 0.26 0.25 0.32 0.37 0.32 0.34 0.49 0.59 0.56 0.43 0.26 0.22 0.23 0.25 0.22 0.18 0.16 0.19 0.27 0.35 0.37 0.40 0.42
0.02 0.03 0.04 0.04 0.09 0.06 0.03 0.06 0.09 0.15 0.21 0.27 0.31 0.37 0.35 0.36 0.38 0.43 0.51 0.43 0.41 0.49 0.58 0.65 0.65 0.47 0.43 0.46 0.37 0.27 0.21 0.19 0.20 0.23 0.26 0.28 0.29 0.30
0.01 0.01 0.03 0.06 0.06 0.05 0.01 0.02 0.06 0.08 0.11 0.13 0.17 0.24 0.31 0.37 0.46 0.60 0.77 0.66 0.52 0.58 0.64 0.68 0.80 0.62 0.58 0.66 0.52 0.34 0.25 0.25 0.24 0.23 0.21 0.17 0.15 0.12
0.01 0.01 0.01 0.04 0.03 0.03 0.02 0.02 0.06 0.04 0.05 0.09 0.12 0.19 0.25 0.34 0.46 0.62 0.79 0.84 0.67 0.59 0.65 0.68 0.82 0.68 0.53 0.57 0.57 0.48 0.30 0.24 0.23 0.25 0.22 0.15 0.10 0.06
0.01 0.01 0.01 0.02 0.00 0.01 0.01 0.01 0.01 0.00 0.01 0.04 0.07 0.13 0.21 0.30 0.42 0.56 0.75 0.87 0.85 0.69 0.58 0.58 0.70 0.65 0.44 0.34 0.42 0.51 0.39 0.27 0.21 0.21 0.21 0.23 0.15 0.10
0.00 0.01 0.01 0.00 0.00 0.00 0.00 0.00 0.00 0.00 0.00 0.02 0.05 0.11 0.19 0.29 0.34 0.39 0.54 0.75 0.84 0.81 0.70 0.63 0.66 0.68 0.52 0.30 0.23 0.35 0.39 0.38 0.26 0.20 0.18 0.16 0.11 0.08
0.00 0.00 0.00 0.00 0.00 0.00 0.00 0.00 0.00 0.00 0.00 0.01 0.03 0.06 0.10 0.16 0.25 0.35 0.42 0.58 0.73 0.85 0.87 0.85 0.87 0.90 0.78 0.50 0.24 0.21 0.25 0.33 0.32 0.21 0.16 0.14 0.11 0.07
0.00 0.00 0.00 0.00 0.00 0.00 0.00 0.00 0.00 0.00 0.00 0.00 0.01 0.03 0.05 0.09 0.18 0.28 0.41 0.53 0.65 0.79 0.90 1.00 1.02 1.05 1.03 0.83 0.51 0.30 0.20 0.20 0.24 0.21 0.16 0.15 0.13 0.10
0.00 0.00 0.00 0.00 0.00 0.00 0.00 0.00 0.00 0.00 0.00 0.00 0.00 0.02 0.05 0.09 0.14 0.20 0.31 0.46 0.61 0.70 0.74 0.83 0.88 0.94 1.09 1.16 0.85 0.44 0.24 0.20 0.22 0.23 0.18 0.16 0.17 0.14
0.00 0.00 0.00 0.00 0.00 0.00 0.00 0.00 0.00 0.00 0.00 0.00 0.00 0.01 0.03 0.06 0.09 0.14 0.21 0.33 0.50 0.62 0.67 0.66 0.66 0.69 0.82 1.04 1.12 0.69 0.33 0.22 0.21 0.24 0.25 0.20 0.19 0.17
0.00 0.00 0.00 0.00 0.00 0.00 0.00 0.00 0.00 0.00 0.00 0.00 0.00 0.00 0.01 0.03 0.06 0.09 0.14 0.23 0.35 0.48 0.54 0.56 0.60 0.63 0.61 0.59 0.68 0.77 0.55 0.29 0.18 0.19 0.25 0.27 0.27 0.20
0.00 0.00 0.00 0.00 0.00 0.00 0.00 0.00 0.00 0.00 0.00 0.00 0.00 0.00 0.00 0.01 0.03 0.06 0.09 0.14 0.21 0.32 0.41 0.45 0.52 0.54 0.56 0.47 0.43 0.51 0.56 0.44 0.24 0.15 0.16 0.18 0.20 0.18
0.01 0.01 0.00 0.00 0.00 0.00 0.00 0.00 0.00 0.00 0.00 0.00 0.00 0.00 0.00 0.00 0.01 0.03 0.05 0.08 0.13 0.20 0.29 0.36 0.38 0.43 0.51 0.53 0.53 0.49 0.46 0.46 0.40 0.27 0.14 0.08 0.06 0.06
0.02 0.01 0.01 0.00 0.00 0.00 0.00 0.00 0.00 0.00 0.00 0.00 0.00 0.00 0.00 0.00 0.00 0.01 0.02 0.04 0.07 0.10 0.16 0.24 0.30 0.32 0.40 0.47 0.50 0.48 0.40 0.35 0.30 0.25 0.21 0.14 0.08 0.05